1494522000.24,34798,16.13,73080.5,-0.25,-41.11,-41.67,0,*67
1494522001.47,34799,16.13,73076.3,-0.25,-41.11,-41.67,0,*66
1494522002.73,34800,16.13,73074.3,-0.25,-40.97,-41.67,0,*66
1494522003.95,34801,16.06,73074.3,-0.27,-41.17,-41.73,0,*69
1494522005.15,34802,16.06,73074.0,-0.29,-41.17,-41.73,0,*64
1494522006.38,34803,16.06,73078.5,-0.27,-41.17,-41.73,0,*6B
1494522007.6,34804,16.13,73080.5,-0.27,-41.17,-41.73,0,*6C
1494522008.8,34805,16.13,73082.0,-0.29,-41.17,-41.73,0,*63
1494522010.01,34806,16.13,73080.3,-0.29,-41.03,-41.73,0,*65
1494522011.21,34807,16.13,73076.3,-0.29,-41.17,-41.73,0,*61
1494522012.41,34808,16.13,73078.5,-0.29,-41.03,-41.61,0,*68
1494522013.64,34809,16.13,73086.3,-0.31,-40.91,-41.49,0,*60
1494522014.87,34810,16.13,73086.3,-0.31,-40.91,-41.29,0,*6E
1494522016.1,34811,16.13,73082.0,-0.31,-40.91,-41.29,0,*6F
1494522017.35,34812,16.13,73078.8,-0.31,-40.85,-41.29,0,*69
1494522018.56,34813,16.13,73076.5,-0.33,-40.91,-41.29,0,*6F
1494522019.79,34814,16.13,73080.3,-0.31,-40.91,-41.29,0,*6A
1494522021.02,34815,16.13,73076.0,-0.31,-40.73,-41.03,0,*6F
1494522022.28,34816,16.13,73078.5,-0.29,-40.79,-40.97,0,*63
1494522023.51,34817,16.13,73076.5,-0.29,-40.65,-40.97,0,*6F
1494522024.74,34818,16.13,73086.0,-0.31,-40.73,-41.03,0,*62
1494522025.97,34819,16.13,73086.3,-0.29,-40.79,-41.03,0,*60
1494522027.2,34820,16.13,73084.0,-0.29,-40.85,-41.17,0,*6C
1494522028.45,34821,16.13,73080.5,-0.31,-40.85,-41.11,0,*62
1494522029.68,34822,16.13,73086.0,-0.33,-40.85,-41.17,0,*65
1494522030.93,34823,16.13,73082.8,-0.31,-40.85,-41.11,0,*60
1494522032.17,34824,16.13,73082.8,-0.33,-40.91,-40.97,0,*6F
1494522033.4,34825,16.13,73084.5,-0.31,-40.65,-40.91,0,*61
1494522034.65,34826,16.06,73078.5,-0.31,-40.59,-40.91,0,*6D
1494522035.91,34827,16.13,73076.0,-0.31,-40.59,-41.03,0,*66
1494522037.19,34828,16.13,73076.8,-0.31,-40.59,-40.85,0,*66
1494522038.45,34829,16.13,73078.8,-0.29,-40.59,-40.85,0,*6E
1494522039.67,34830,16.13,73078.8,-0.31,-40.65,-40.91,0,*65
1494522040.93,34831,16.13,73072.5,-0.31,-40.85,-41.03,0,*60
1494522042.17,34832,16.13,73072.8,-0.27,-40.65,-40.85,0,*65
1494522043.4,34833,16.13,73082.8,-0.29,-40.65,-40.85,0,*6A
1494522044.62,34834,16.13,73078.0,-0.27,-40.53,-40.65,0,*68
1494522045.88,34835,16.13,73080.3,-0.29,-40.59,-40.97,0,*60
1494522047.09,34836,16.13,73090.3,-0.29,-40.53,-40.79,0,*69
1494522048.34,34837,16.13,73084.5,-0.29,-40.59,-40.79,0,*62
1494522049.61,34838,16.13,73084.5,-0.27,-40.59,-40.79,0,*63
1494522050.84,34839,16.13,73082.0,-0.29,-40.41,-40.65,0,*68
1494522052.06,34840,16.13,73082.5,-0.29,-40.65,-40.79,0,*6D
1494522053.3,34841,16.13,73086.5,-0.27,-40.65,-40.79,0,*62
1494522054.54,34842,16.13,73074.3,-0.29,-40.79,-40.79,0,*62
1494522055.82,34843,16.13,73082.3,-0.27,-40.79,-40.85,0,*6E
1494522057.09,34844,16.13,73076.3,-0.27,-40.79,-40.85,0,*69
1494522058.34,34845,16.13,73076.5,-0.29,-40.79,-40.79,0,*65
1494522059.6,34846,16.13,73080.0,-0.27,-40.79,-40.79,0,*68
1494522060.82,34847,16.13,73080.5,-0.27,-40.65,-40.65,0,*69
1494522062.06,34848,16.13,73082.3,-0.27,-40.59,-40.65,0,*69
1494522063.31,34849,16.13,73078.8,-0.27,-40.35,-40.59,0,*6D
1494522064.54,34850,16.13,73082.0,-0.29,-40.21,-40.53,0,*64
1494522065.77,34851,16.13,73082.5,-0.29,-40.41,-40.53,0,*63
1494522067.0,34852,16.13,73082.5,-0.27,-40.35,-40.53,0,*6D
1494522068.27,34853,16.13,73080.8,-0.27,-40.41,-40.59,0,*65
1494522069.53,34854,16.13,73080.3,-0.27,-40.35,-40.59,0,*61
1494522070.81,34855,16.13,73078.5,-0.27,-40.41,-40.59,0,*63
1494522072.04,34856,16.13,73082.0,-0.25,-40.35,-40.59,0,*61
1494522073.25,34857,16.13,73082.8,-0.25,-40.15,-40.53,0,*68
1494522074.48,34858,16.13,73076.5,-0.25,-40.47,-40.59,0,*6A
1494522075.68,34859,16.13,73078.5,-0.25,-40.35,-40.73,0,*66
1494522076.96,34860,16.13,73078.3,-0.27,-40.59,-40.85,0,*6D
1494522078.21,34861,16.13,73076.8,-0.27,-40.59,-41.03,0,*63
1494522079.44,34862,16.13,73074.0,-0.25,-40.47,-40.59,0,*63
1494522080.72,34863,16.13,73074.5,-0.27,-40.41,-40.85,0,*67
1494522081.97,34864,16.13,73074.5,-0.27,-40.65,-40.97,0,*65
1494522083.2,34865,16.13,73074.8,-0.27,-40.53,-41.03,0,*6D
1494522084.45,34866,16.13,73074.8,-0.27,-40.59,-41.03,0,*64
1494522085.72,34867,16.13,73074.5,-0.27,-40.21,-40.85,0,*65
1494522086.96,34868,16.13,73072.8,-0.27,-40.21,-40.65,0,*64
1494522088.22,34869,16.13,73076.3,-0.25,-39.97,-40.59,0,*6B
1494522089.45,34870,16.13,73076.5,-0.25,-40.09,-40.73,0,*62
1494522090.7,34871,16.13,73082.3,-0.27,-40.15,-40.79,0,*66
1494522091.98,34872,16.13,73078.3,-0.27,-40.21,-40.85,0,*61
1494522093.23,34873,16.13,73084.0,-0.27,-40.35,-40.97,0,*66
1494522094.49,34874,16.13,73084.3,-0.27,-40.41,-41.03,0,*6E
1494522095.74,34875,16.13,73086.8,-0.27,-40.53,-41.23,0,*6E
1494522097.01,34876,16.13,73088.5,-0.27,-40.59,-41.23,0,*67
1494522098.28,34877,16.13,73084.8,-0.27,-40.59,-41.23,0,*66
1494522099.54,34878,16.13,73086.3,-0.27,-40.59,-41.03,0,*6B
1494522100.76,34879,16.13,73082.8,-0.27,-40.53,-41.03,0,*60
1494522102.01,34880,16.13,73082.3,-0.27,-40.59,-41.17,0,*69
1494522103.23,34881,16.13,73084.0,-0.27,-40.53,-41.17,0,*62
1494522104.45,34882,16.13,73084.5,-0.27,-40.53,-41.03,0,*64
1494522105.72,34883,16.13,73084.5,-0.27,-40.79,-41.23,0,*6F
1494522106.97,34884,16.13,73076.3,-0.29,-40.79,-41.35,0,*61
1494522108.24,34885,16.13,73082.3,-0.27,-40.79,-41.23,0,*69
1494522109.51,34886,16.13,73086.3,-0.27,-40.79,-41.23,0,*6A
1494522110.79,34887,16.13,73080.8,-0.27,-40.85,-41.23,0,*68
1494522112.06,34888,16.13,73080.5,-0.27,-40.97,-41.35,0,*63
1494522113.34,34889,16.13,73076.8,-0.27,-40.97,-41.55,0,*64
1494522114.61,34890,16.13,73080.3,-0.27,-40.85,-41.35,0,*69
1494522115.87,34891,16.13,73086.3,-0.29,-40.85,-41.35,0,*66
1494522117.14,34892,16.13,73090.5,-0.27,-40.85,-41.23,0,*6C
1494522118.4,34893,16.13,73084.8,-0.29,-40.85,-41.35,0,*64
1494522119.65,34894,16.13,73086.0,-0.29,-40.85,-41.23,0,*64
1494522120.88,34895,16.13,73088.5,-0.29,-40.85,-41.17,0,*62
1494522122.14,34896,16.13,73088.3,-0.29,-40.85,-41.23,0,*66
1494522123.37,34897,16.13,73084.3,-0.29,-40.85,-41.03,0,*65
1494522124.59,34898,16.13,73088.8,-0.27,-40.65,-41.03,0,*6A
1494522125.82,34899,16.13,73092.3,-0.31,-40.73,-41.03,0,*6B
1494522127.07,34900,16.13,73090.0,-0.27,-40.65,-40.97,0,*66
1494522128.3,34901,16.13,73090.5,-0.29,-40.79,-41.03,0,*68
1494522129.51,34902,16.13,73088.0,-0.29,-40.65,-41.03,0,*66
1494522130.73,34903,16.13,73080.8,-0.29,-40.79,-41.03,0,*6A
1494522131.98,34904,16.13,73068.3,-0.27,-40.59,-40.65,0,*60
1494522133.22,34905,16.13,73070.5,-0.27,-40.53,-40.79,0,*66
1494522134.46,34906,16.13,73074.8,-0.27,-40.35,-40.79,0,*65
1494522135.66,34907,16.13,73068.8,-0.29,-40.35,-40.65,0,*67
1494522136.91,34908,16.13,73076.0,-0.27,-40.41,-40.65,0,*65
1494522138.12,34909,16.13,73070.8,-0.29,-40.35,-40.65,0,*69
1494522139.34,34910,16.13,73074.5,-0.27,-40.35,-40.65,0,*6F
1494522140.56,34911,16.13,73080.0,-0.27,-40.35,-40.65,0,*6E
1494522141.78,34912,16.13,73080.3,-0.27,-40.35,-40.65,0,*6D
1494522143.03,34913,16.13,73076.8,-0.27,-40.35,-40.59,0,*63
1494522144.28,34914,16.13,73072.8,-0.27,-40.35,-40.59,0,*64
1494522145.53,34915,16.13,73060.5,-0.27,-40.35,-40.59,0,*65
1494522146.78,34916,16.13,73070.8,-0.27,-40.35,-40.59,0,*66
1494522148.0,34917,16.13,73074.8,-0.29,-40.35,-40.79,0,*6B
1494522149.28,34918,16.13,73074.3,-0.27,-40.59,-40.85,0,*63
1494522150.56,34919,16.13,73064.0,-0.27,-40.59,-40.85,0,*62
1494522151.84,34920,16.13,73068.5,-0.27,-40.41,-40.85,0,*61
1494522153.12,34921,16.13,73066.8,-0.27,-40.59,-40.85,0,*69
1494522154.34,34922,16.13,73064.0,-0.25,-40.53,-40.79,0,*61
1494522155.57,34923,16.13,73068.5,-0.27,-40.53,-40.79,0,*62
1494522156.77,34924,16.13,73074.3,-0.29,-40.35,-40.65,0,*66
1494522158.04,34925,16.13,73074.0,-0.27,-40.15,-40.59,0,*64
1494522159.29,34926,16.13,73074.5,-0.27,-40.03,-40.59,0,*60
1494522160.55,34927,16.13,73076.0,-0.27,-40.15,-40.59,0,*66
1494522161.82,34928,16.13,73076.8,-0.27,-40.21,-40.59,0,*6E
1494522163.03,34929,16.13,73074.8,-0.25,-40.15,-40.53,0,*60
1494522164.28,34930,16.13,73072.3,-0.27,-40.21,-40.65,0,*68
1494522165.51,34931,16.13,73074.5,-0.27,-40.15,-40.65,0,*6E
1494522166.74,34932,16.13,73074.0,-0.27,-40.15,-40.65,0,*6D
1494522168.0,34933,16.13,73076.8,-0.27,-40.15,-40.59,0,*63
1494522169.24,34934,16.13,73074.5,-0.25,-40.15,-40.59,0,*66
1494522170.47,34935,16.13,73072.5,-0.25,-40.35,-40.59,0,*65
1494522171.67,34936,16.13,73074.8,-0.25,-40.35,-40.73,0,*6E
1494522172.89,34937,16.13,73074.3,-0.25,-40.47,-40.79,0,*60
1494522174.12,34938,16.13,73068.3,-0.25,-40.47,-40.79,0,*6F
1494522175.35,34939,16.13,73070.0,-0.25,-40.53,-40.97,0,*6B
1494522176.57,34940,16.13,73076.5,-0.25,-40.47,-40.79,0,*60
1494522177.81,34941,16.13,73068.3,-0.27,-40.21,-40.65,0,*6E
1494522179.06,34942,16.13,73074.5,-0.27,-40.35,-40.79,0,*65
1494522180.34,34943,16.13,73074.0,-0.27,-40.41,-40.85,0,*64
1494522181.6,34944,16.13,73076.0,-0.27,-40.21,-40.79,0,*66
1494522182.85,34945,16.13,73078.3,-0.27,-40.21,-40.65,0,*6A
1494522184.13,34946,16.13,73080.0,-0.27,-40.41,-40.85,0,*61
1494522185.38,34947,16.13,73074.8,-0.27,-40.35,-40.85,0,*63
1494522186.63,34948,16.13,73078.8,-0.27,-40.53,-40.97,0,*6F
1494522187.84,34949,16.13,73084.5,-0.29,-40.35,-41.03,0,*6C
1494522189.1,34950,16.13,73076.5,-0.29,-40.41,-40.97,0,*6B
1494522190.37,34951,16.13,73074.5,-0.27,-40.21,-40.85,0,*61
1494522191.61,34952,16.13,73070.0,-0.27,-40.15,-40.65,0,*6B
1494522192.84,34953,16.13,73080.0,-0.29,-40.15,-40.79,0,*69
1494522194.11,34954,16.13,73078.3,-0.27,-40.21,-40.79,0,*67
1494522195.38,34955,16.13,73076.5,-0.27,-40.21,-40.97,0,*66
1494522196.65,34956,16.13,73084.0,-0.27,-40.21,-40.85,0,*66
1494522197.92,34957,16.13,73084.3,-0.27,-40.15,-40.85,0,*60
1494522199.17,34958,16.13,73086.3,-0.27,-40.15,-40.79,0,*6C
1494522200.43,34959,16.13,73086.8,-0.27,-40.15,-40.85,0,*6E
1494522201.71,34960,16.13,73084.0,-0.27,-40.21,-40.85,0,*63
1494522202.98,34961,16.13,73086.5,-0.27,-40.21,-40.97,0,*61
1494522204.24,34962,16.13,73082.3,-0.27,-40.35,-40.97,0,*67
1494522205.52,34963,16.13,73078.0,-0.27,-40.41,-40.85,0,*66
1494522206.77,34964,16.13,73076.3,-0.25,-40.29,-40.79,0,*6E
1494522208.02,34965,16.13,73084.5,-0.27,-40.15,-40.79,0,*62
1494522209.26,34966,16.13,73084.0,-0.27,-40.21,-40.65,0,*6B
1494522210.53,34967,16.13,73090.8,-0.27,-40.21,-40.79,0,*67
1494522211.75,34968,16.13,73088.0,-0.27,-40.35,-40.65,0,*60
1494522213.01,34969,16.13,73086.5,-0.27,-40.21,-40.79,0,*69
1494522214.28,34970,16.13,73084.3,-0.27,-40.21,-40.79,0,*61
1494522215.52,34971,16.13,73072.5,-0.27,-40.21,-40.65,0,*6D
1494522216.75,34972,16.13,73080.5,-0.29,-40.03,-40.59,0,*6F
1494522218.01,34973,16.13,73086.0,-0.27,-39.79,-40.35,0,*69
1494522219.28,34974,16.13,73082.5,-0.27,-39.97,-40.59,0,*64
1494522220.5,34975,16.13,73086.0,-0.27,-40.03,-40.65,0,*69
1494522221.74,34976,16.13,73084.0,-0.25,-40.15,-40.79,0,*62
1494522222.97,34977,16.13,73082.3,-0.25,-40.09,-40.73,0,*64
1494522224.23,34978,16.13,73084.5,-0.25,-40.09,-40.59,0,*63
1494522225.49,34979,16.13,73084.3,-0.25,-39.97,-40.59,0,*6B
1494522226.72,34980,16.13,73076.0,-0.25,-40.29,-40.91,0,*62
1494522227.97,34981,16.13,73078.0,-0.25,-40.09,-40.79,0,*67
1494522229.25,34982,16.13,73076.5,-0.27,-39.97,-40.85,0,*6C
1494522230.48,34983,16.13,73076.3,-0.27,-39.85,-40.65,0,*60
1494522231.73,34984,16.13,73082.3,-0.27,-40.03,-40.97,0,*6A
1494522233.0,34985,16.13,73080.3,-0.27,-40.15,-40.85,0,*6F
1494522234.27,34986,16.13,73084.5,-0.27,-39.97,-40.85,0,*68
1494522235.54,34987,16.13,73082.5,-0.25,-40.09,-40.97,0,*61
1494522236.77,34988,16.13,73082.5,-0.25,-39.97,-40.91,0,*61
1494522238.01,34989,16.13,73084.8,-0.27,-40.15,-41.03,0,*6C
1494522239.27,34990,16.13,73086.5,-0.27,-39.97,-41.03,0,*60
1494522240.5,34991,16.13,73082.3,-0.27,-40.15,-41.03,0,*65
1494522241.75,34992,16.13,73084.8,-0.27,-40.21,-41.17,0,*64
1494522243.03,34993,16.13,73086.5,-0.27,-40.41,-41.23,0,*64
1494522244.27,34994,16.13,73086.8,-0.27,-40.15,-41.03,0,*60
1494522245.5,34995,16.13,73084.0,-0.27,-40.15,-41.17,0,*64
1494522246.73,34996,16.13,73082.3,-0.27,-40.35,-41.17,0,*65
1494522247.95,34997,16.13,73082.5,-0.27,-40.35,-41.17,0,*64
1494522249.15,34998,16.13,73082.3,-0.29,-40.35,-41.17,0,*65
1494522250.4,34999,16.13,73084.3,-0.27,-40.41,-41.17,0,*69
1494522251.63,35000,16.13,73082.3,-0.27,-40.35,-41.03,0,*67
1494522252.9,35001,16.13,73084.8,-0.27,-40.15,-40.97,0,*68
1494522254.16,35002,16.13,73088.3,-0.27,-40.15,-40.97,0,*6B
1494522255.43,35003,16.13,73090.8,-0.27,-40.15,-40.85,0,*69
1494522256.69,35004,16.13,73084.3,-0.27,-40.15,-40.85,0,*6E
1494522257.93,35005,16.13,73078.8,-0.29,-40.03,-40.97,0,*65
1494522259.18,35006,16.13,73076.3,-0.27,-40.03,-40.97,0,*68
1494522260.44,35007,16.13,73076.0,-0.27,-40.15,-40.85,0,*6D
1494522261.69,35008,16.13,73082.5,-0.29,-40.15,-40.85,0,*6C
1494522262.96,35009,16.13,73080.0,-0.27,-40.21,-40.97,0,*67
1494522264.21,35010,16.13,73078.0,-0.29,-40.15,-40.85,0,*65
1494522265.48,35011,16.13,73072.3,-0.27,-40.21,-40.85,0,*6D
1494522266.74,35012,16.13,73072.8,-0.27,-40.15,-40.85,0,*69
1494522268.0,35013,16.13,73068.0,-0.27,-40.15,-40.85,0,*68
1494522269.26,35014,16.13,73074.3,-0.29,-39.97,-40.85,0,*65
1494522270.54,35015,16.13,73072.3,-0.27,-39.79,-40.79,0,*69
1494522271.8,35016,16.13,73076.0,-0.27,-40.03,-40.97,0,*69
1494522273.05,35017,16.13,73080.8,-0.27,-40.03,-40.97,0,*68
1494522274.27,35018,16.13,73078.5,-0.29,-40.15,-41.03,0,*62
1494522275.52,35019,16.13,73078.3,-0.27,-40.21,-41.03,0,*6A
1494522276.73,35020,16.13,73076.5,-0.29,-40.03,-41.03,0,*6E
1494522277.94,35021,16.13,73078.0,-0.29,-40.03,-41.03,0,*6F
1494522279.18,35022,16.13,73082.0,-0.29,-39.85,-40.97,0,*60
1494522280.42,35023,16.13,73080.0,-0.29,-39.59,-40.53,0,*68
1494522281.69,35024,16.13,73082.3,-0.29,-39.79,-40.85,0,*66
1494522282.95,35025,16.13,73072.5,-0.27,-39.85,-40.85,0,*6A
1494522284.18,35026,16.13,73076.8,-0.29,-40.03,-40.85,0,*67
1494522285.44,35027,16.13,73076.3,-0.29,-39.97,-40.97,0,*66
1494522286.67,35028,16.13,73076.0,-0.29,-40.03,-40.85,0,*69
1494522287.91,35029,16.13,73074.5,-0.29,-39.79,-40.65,0,*65
1494522289.15,35030,16.13,73078.3,-0.29,-39.65,-40.59,0,*6F
1494522290.39,35031,16.13,73082.3,-0.29,-39.59,-40.65,0,*6E
1494522291.62,35032,16.13,73080.5,-0.29,-39.65,-40.79,0,*6F
1494522292.85,35033,16.13,73076.5,-0.29,-39.59,-40.65,0,*6C
1494522294.06,35034,16.13,73078.0,-0.29,-39.65,-40.65,0,*64
1494522295.3,35035,16.13,73082.0,-0.31,-39.91,-41.03,0,*66
1494522296.57,35036,16.13,73082.8,-0.29,-39.79,-40.97,0,*66
1494522297.83,35037,16.13,73082.0,-0.29,-39.79,-40.79,0,*67
1494522299.07,35038,16.13,73080.5,-0.31,-39.85,-40.91,0,*64
1494522300.33,35039,16.13,73076.5,-0.31,-39.91,-40.85,0,*65
1494522301.57,35040,16.13,73076.0,-0.31,-39.85,-40.91,0,*6B
1494522302.81,35041,16.13,73076.8,-0.31,-39.91,-40.91,0,*6F
1494522304.05,35042,16.13,73082.5,-0.29,-39.85,-40.85,0,*65
1494522305.26,35043,16.13,73080.5,-0.29,-39.85,-41.03,0,*6B
1494522306.49,35044,16.13,73082.8,-0.31,-40.03,-41.11,0,*66
1494522307.75,35045,16.13,73084.5,-0.31,-40.09,-41.11,0,*6D
1494522308.98,35046,16.19,73084.8,-0.31,-40.03,-41.03,0,*67
1494522310.27,35047,16.13,73080.3,-0.31,-40.09,-41.23,0,*6E
1494522311.5,35048,16.13,73082.5,-0.31,-39.91,-41.11,0,*6F
1494522312.74,35049,16.13,73078.5,-0.31,-39.91,-41.03,0,*6D
1494522313.98,35050,16.13,73080.5,-0.31,-39.85,-41.03,0,*60
1494522315.22,35051,16.13,73078.8,-0.31,-39.91,-41.03,0,*64
1494522316.45,35052,16.13,73080.0,-0.33,-39.97,-41.11,0,*60
1494522317.69,35053,16.13,73076.8,-0.31,-39.91,-41.03,0,*66
1494522318.94,35054,16.13,73084.3,-0.33,-39.79,-40.91,0,*6F
1494522320.18,35055,16.13,73082.0,-0.33,-39.79,-40.91,0,*6E
1494522321.44,35056,16.13,73082.0,-0.31,-40.09,-41.29,0,*64
1494522322.65,35057,16.13,73082.5,-0.33,-40.15,-41.29,0,*6A
1494522323.89,35058,16.13,73082.3,-0.33,-40.15,-41.35,0,*68
1494522325.15,35059,16.13,73086.8,-0.33,-40.09,-41.35,0,*64
1494522326.36,35060,16.13,73090.3,-0.33,-40.15,-41.49,0,*68
1494522327.6,35061,16.13,73088.3,-0.33,-40.15,-41.55,0,*64
1494522328.86,35062,16.13,73084.3,-0.33,-40.29,-41.67,0,*69
1494522330.11,35063,16.13,73082.0,-0.35,-40.35,-41.55,0,*62
1494522331.36,35064,16.13,73084.0,-0.35,-40.35,-41.55,0,*65
1494522332.59,35065,16.13,73082.0,-0.35,-40.35,-41.73,0,*60
1494522333.87,35066,16.13,73082.0,-0.35,-40.29,-41.55,0,*6A
1494522335.14,35067,16.13,73082.3,-0.35,-40.29,-41.55,0,*6B
1494522336.42,35068,16.13,73082.8,-0.35,-40.29,-41.67,0,*65
1494522337.7,35069,16.13,73080.0,-0.35,-40.29,-41.55,0,*65
1494522338.93,35070,16.13,73082.8,-0.37,-40.41,-41.73,0,*65
1494522340.16,35071,16.13,73084.8,-0.35,-40.15,-41.49,0,*6E
1494522341.4,35072,16.13,73080.5,-0.37,-40.21,-41.55,0,*65
1494522342.68,35073,16.13,73082.3,-0.35,-40.29,-41.55,0,*6E
1494522343.96,35074,16.13,73086.3,-0.35,-40.29,-41.67,0,*68
1494522345.24,35075,16.13,73086.8,-0.35,-40.29,-41.67,0,*69
1494522346.47,35076,16.13,73082.3,-0.37,-40.41,-41.73,0,*63
1494522347.7,35077,16.13,73084.3,-0.37,-40.41,-41.73,0,*62
1494522348.9,35078,16.13,73080.3,-0.37,-40.35,-41.73,0,*6E
1494522350.12,35079,16.13,73082.8,-0.37,-40.41,-41.73,0,*6C
1494522351.32,35080,16.19,73086.5,-0.37,-40.53,-41.61,0,*6A
1494522352.51,35081,16.13,73080.5,-0.37,-40.53,-41.61,0,*6B
1494522353.76,35082,16.13,73082.0,-0.37,-40.41,-41.55,0,*6C
1494522355.02,35083,16.13,73078.0,-0.37,-40.41,-41.55,0,*6D
1494522356.22,35084,16.13,73080.5,-0.37,-40.35,-41.41,0,*6C
1494522357.45,35085,16.13,73080.5,-0.37,-40.41,-41.41,0,*6E
1494522358.68,35086,16.13,73080.3,-0.37,-40.41,-41.41,0,*6D
1494522359.91,35087,16.13,73084.8,-0.39,-40.35,-41.41,0,*61
1494522361.15,35088,16.13,73088.0,-0.39,-40.21,-41.41,0,*6B
1494522362.42,35089,16.13,73084.3,-0.39,-40.15,-41.23,0,*69
1494522363.7,35090,16.13,73082.0,-0.39,-40.41,-41.55,0,*61
1494522364.95,35091,16.13,73080.5,-0.39,-40.41,-41.61,0,*67
1494522366.23,35092,16.13,73082.0,-0.39,-40.41,-41.81,0,*6A
1494522367.47,35093,16.13,73082.0,-0.39,-40.21,-41.73,0,*60
1494522368.72,35094,16.13,73080.5,-0.39,-40.41,-41.61,0,*62
1494522370.0,35095,16.13,73082.3,-0.43,-40.41,-41.81,0,*60
1494522371.25,35096,16.13,73084.3,-0.39,-40.41,-41.61,0,*60
1494522372.49,35097,16.13,73088.8,-0.39,-40.21,-41.61,0,*67
1494522373.74,35098,16.13,73088.8,-0.39,-40.21,-41.61,0,*68
1494522375.01,35099,16.13,73088.8,-0.43,-40.29,-41.67,0,*6A
1494522376.29,35100,16.13,73082.0,-0.43,-40.29,-41.67,0,*6B
1494522377.56,35101,16.13,73078.5,-0.43,-40.29,-41.67,0,*6A
1494522378.81,35102,16.13,73076.5,-0.43,-40.29,-41.61,0,*6F
1494522380.08,35103,16.13,73078.8,-0.43,-40.29,-41.67,0,*68
1494522381.36,35104,16.13,73078.3,-0.43,-40.29,-41.67,0,*6F
1494522382.58,35105,16.13,73080.8,-0.45,-40.29,-41.73,0,*6D
1494522383.82,35106,16.13,73084.3,-0.45,-40.15,-41.67,0,*64
1494522385.06,35107,16.13,73080.5,-0.45,-40.15,-41.55,0,*64
1494522386.29,35108,16.19,73080.0,-0.45,-40.09,-41.49,0,*6B
1494522387.52,35109,16.13,73082.0,-0.45,-40.15,-41.55,0,*6A
1494522388.77,35110,16.13,73084.3,-0.45,-40.15,-41.67,0,*63
1494522390.02,35111,16.13,73086.3,-0.45,-40.09,-41.55,0,*6E
1494522391.28,35112,16.13,73086.0,-0.45,-40.09,-41.35,0,*6B
1494522392.52,35113,16.13,73086.3,-0.45,-40.15,-41.67,0,*60
1494522393.79,35114,16.13,73084.5,-0.47,-40.15,-41.67,0,*65
1494522395.01,35115,16.13,73080.5,-0.47,-40.35,-41.73,0,*63
1494522396.25,35116,16.13,73076.8,-0.47,-40.29,-41.73,0,*6D
1494522397.48,35117,16.13,73082.8,-0.45,-40.35,-41.67,0,*66
1494522398.71,35118,16.19,73088.0,-0.45,-40.35,-41.67,0,*69
1494522399.98,35119,16.13,73094.0,-0.47,-40.29,-41.55,0,*66
1494522401.26,35120,16.13,73094.8,-0.47,-40.29,-41.67,0,*6D
1494522402.48,35121,16.13,73090.0,-0.47,-40.35,-41.73,0,*64
1494522403.76,35122,16.13,73090.5,-0.47,-40.09,-41.55,0,*6C
1494522404.99,35123,16.13,73094.0,-0.47,-40.15,-41.49,0,*6D
1494522406.26,35124,16.13,73094.0,-0.47,-40.15,-41.55,0,*67
1494522407.52,35125,16.19,73088.5,-0.47,-40.15,-41.67,0,*67
1494522408.79,35126,16.13,73082.8,-0.47,-40.29,-41.55,0,*6A
1494522410.07,35127,16.19,73090.3,-0.47,-40.29,-41.55,0,*6B
1494522411.31,35128,16.19,73088.0,-0.47,-40.35,-41.55,0,*69
1494522412.51,35129,16.13,73088.8,-0.49,-40.35,-41.61,0,*61
1494522413.74,35130,16.13,73092.5,-0.49,-40.41,-41.61,0,*6A
1494522414.98,35131,16.13,73092.5,-0.49,-40.41,-41.73,0,*68
1494522416.2,35132,16.13,73094.0,-0.49,-40.53,-41.81,0,*65
1494522417.43,35133,16.13,73092.5,-0.49,-40.41,-41.73,0,*6A
1494522418.65,35134,16.13,73084.5,-0.51,-40.53,-41.73,0,*67
1494522419.89,35135,16.13,73084.0,-0.51,-40.53,-41.81,0,*6B
1494522421.15,35136,16.13,73080.5,-0.51,-40.15,-41.35,0,*65
1494522422.42,35137,16.19,73086.3,-0.51,-40.15,-41.55,0,*62
1494522423.65,35138,16.13,73080.3,-0.49,-40.41,-41.73,0,*61
1494522424.88,35139,16.13,73080.0,-0.49,-40.35,-41.55,0,*67
1494522426.1,35140,16.13,73084.5,-0.51,-40.35,-41.61,0,*67
1494522427.34,35141,16.13,73082.5,-0.49,-40.41,-41.73,0,*6F
1494522428.58,35142,16.13,73080.0,-0.49,-40.15,-41.35,0,*6F
1494522429.84,35143,16.13,73076.0,-0.51,-40.15,-41.55,0,*61
1494522431.08,35144,16.13,73082.0,-0.51,-40.15,-41.41,0,*63
1494522432.35,35145,16.13,73082.0,-0.51,-40.15,-41.23,0,*66
1494522433.6,35146,16.13,73080.8,-0.49,-40.21,-41.55,0,*6A
1494522434.82,35147,16.19,73084.8,-0.49,-40.21,-41.41,0,*6E
1494522436.09,35148,16.13,73084.8,-0.51,-40.21,-41.55,0,*6D
1494522437.35,35149,16.19,73088.0,-0.51,-40.35,-41.55,0,*69
1494522438.6,35150,16.19,73088.5,-0.51,-40.41,-41.61,0,*65
1494522439.85,35151,16.13,73088.5,-0.51,-40.41,-41.61,0,*64
1494522441.11,35152,16.19,73088.5,-0.51,-40.41,-41.61,0,*67
1494522442.32,35153,16.19,73090.3,-0.51,-40.53,-41.61,0,*65
1494522443.57,35154,16.13,73088.5,-0.51,-40.21,-41.41,0,*65
1494522444.83,35155,16.19,73096.3,-0.51,-40.15,-41.35,0,*60
1494522446.03,35156,16.13,73096.3,-0.53,-40.47,-41.61,0,*67
1494522447.25,35157,16.13,73092.5,-0.53,-40.29,-41.49,0,*64
1494522448.47,35158,16.13,73088.5,-0.53,-40.21,-41.29,0,*65
1494522449.68,35159,16.13,73094.0,-0.53,-40.21,-41.29,0,*64
1494522450.9,35160,16.13,73090.0,-0.53,-40.21,-41.29,0,*6E
1494522452.13,35161,16.13,73088.8,-0.53,-40.09,-41.29,0,*65
1494522453.36,35162,16.19,73094.0,-0.53,-40.09,-41.41,0,*68
1494522454.59,35163,16.13,73088.3,-0.53,-40.09,-41.29,0,*67
1494522455.85,35164,16.19,73090.5,-0.55,-40.09,-41.29,0,*66
1494522457.1,35165,16.13,73088.3,-0.55,-40.09,-41.41,0,*69
1494522458.33,35166,16.19,73094.3,-0.53,-40.09,-41.29,0,*62
1494522459.57,35167,16.13,73092.5,-0.55,-40.21,-41.29,0,*6F
1494522460.79,35168,16.13,73096.0,-0.53,-40.29,-41.61,0,*62
1494522462.01,35169,16.13,73096.3,-0.53,-40.21,-41.49,0,*61
1494522463.25,35170,16.13,73102.0,-0.55,-40.21,-41.49,0,*6F
1494522464.49,35171,16.13,73100.8,-0.55,-40.21,-41.49,0,*6E
1494522465.74,35172,16.19,73102.5,-0.55,-40.09,-41.41,0,*6F
1494522466.99,35173,16.13,73094.8,-0.55,-40.09,-41.61,0,*6C
1494522468.23,35174,16.13,73094.5,-0.55,-40.21,-41.49,0,*6B
1494522469.46,35175,16.13,73092.3,-0.53,-40.09,-41.41,0,*6E
1494522470.71,35176,16.13,73090.8,-0.55,-40.09,-41.41,0,*6B
1494522471.94,35177,16.13,73090.8,-0.55,-40.03,-41.41,0,*60
1494522473.19,35178,16.13,73090.5,-0.55,-40.09,-41.29,0,*6B
1494522474.45,35179,16.19,73084.3,-0.55,-40.09,-41.41,0,*64
1494522475.69,35180,16.19,73086.0,-0.55,-40.21,-41.41,0,*68
1494522476.94,35181,16.19,73084.0,-0.55,-40.21,-41.29,0,*67
1494522478.18,35182,16.13,73084.0,-0.55,-40.21,-41.29,0,*64
1494522479.38,35183,16.19,73082.8,-0.57,-40.15,-41.49,0,*66
1494522480.61,35184,16.19,73078.0,-0.55,-40.03,-41.11,0,*69
1494522481.82,35185,16.13,73078.3,-0.57,-40.15,-41.29,0,*66
1494522483.03,35186,16.19,73082.8,-0.57,-40.15,-41.29,0,*65
1494522484.26,35187,16.19,73078.8,-0.57,-40.09,-41.17,0,*64
1494522485.49,35188,16.13,73082.5,-0.55,-40.03,-41.11,0,*65
1494522486.7,35189,16.19,73080.5,-0.57,-40.15,-41.17,0,*67
1494522487.93,35190,16.13,73082.5,-0.57,-40.09,-41.17,0,*62
1494522489.14,35191,16.19,73082.5,-0.57,-40.15,-41.29,0,*63
1494522490.37,35192,16.19,73084.0,-0.57,-40.09,-41.17,0,*60
1494522491.58,35193,16.19,73078.8,-0.57,-40.15,-41.17,0,*6C
1494522492.79,35194,16.13,73076.5,-0.57,-40.15,-41.29,0,*66
1494522494.02,35195,16.13,73078.5,-0.57,-40.09,-41.17,0,*67
1494522495.31,35196,16.13,73076.5,-0.59,-40.09,-41.35,0,*6A
1494522496.54,35197,16.13,73078.0,-0.57,-40.15,-41.35,0,*68